[[{"header":{"parameterUnit":"m.s-1","parameterCategory":2,"la1":30.2991,"la2":30.254,"lo1":-89.0895,"lo2":-89.0444,"dy":0.0017,"dx":0.0017,"nx":28,"ny":28,"refTime":"2025-01-21T09:00:00:Z","depth":"0","parameterNumber":2,"parameterNumberName":"U-component_of_CURRENTS"},"data":[0,0,0,0,0,0,0,0,0,0,0,0,0,0,0,0,0,0,0,0,0,0,0,0,0,0,0,0,0,0,0,0,0,0,0,0,0,0,0,0,0,0,0,0,0,0,0,0,0,0,0,0,0,0,0,0,0,0,-0.2108,-0.2109,0,-0.2087,-0.2086,-0.2086,-0.2036,-0.2035,-0.2035,-0.2034,-0.2032,-0.2032,-0.2033,0,0,0,0,0,0,0,0,0,0,0,0,0,-0.2044,-0.2045,-0.2108,-0.2109,-0.2109,-0.2087,-0.2086,-0.2086,-0.2036,-0.2035,-0.2035,-0.2034,-0.2031,-0.2032,-0.2033,0,0,0,0,0,0,0,0,0,0,0,0,0,-0.2048,-0.2045,-0.2108,-0.2085,-0.2082,-0.2087,-0.2086,-0.2086,-0.2036,-0.2035,-0.2034,-0.2034,-0.2031,-0.2032,-0.2033,-0.2057,0,0,-0.2035,-0.2035,0,0,0,0,0,0,0,0,-0.2048,-0.205,-0.2088,-0.2086,-0.2084,-0.2067,-0.2063,-0.2078,-0.2037,-0.2049,-0.2034,-0.2033,-0.2049,-0.2048,-0.204,-0.2056,-0.2056,-0.2035,-0.2036,-0.2036,-0.2036,0,0,0,0,0,0,0,-0.2048,-0.205,-0.2096,-0.2088,-0.2086,-0.2054,-0.2053,-0.2065,-0.2052,-0.2048,-0.2046,-0.205,-0.2047,-0.2039,-0.2039,-0.2056,-0.2035,-0.2036,-0.2036,-0.2037,-0.2053,-0.2053,0,0,0,0,0,0,-0.2064,-0.2051,-0.2096,-0.2095,-0.2068,-0.2056,-0.2056,-0.207,-0.2051,-0.2048,-0.2051,-0.2048,-0.2038,-0.2039,-0.2039,-0.2018,-0.2036,-0.2037,-0.2037,-0.2053,-0.2053,-0.2053,0,0,0,0,0,0,-0.2063,-0.2069,-0.2097,-0.2075,-0.2077,-0.2059,-0.2075,-0.207,-0.2062,-0.2054,-0.205,-0.2049,-0.2037,-0.2038,-0.204,-0.2019,-0.2037,-0.2038,-0.2053,-0.2053,-0.2053,-0.2007,0,0,0,0,0,0,-0.2061,-0.2068,-0.2078,-0.2077,-0.2079,-0.2095,-0.2076,-0.2071,-0.2069,-0.2064,-0.2051,-0.205,-0.2037,-0.2039,-0.2041,-0.2021,-0.2038,-0.2053,-0.2053,-0.2053,-0.2009,-0.2005,-0.2003,0,0,0,0,0,-0.2059,-0.2077,-0.2079,-0.2084,-0.2095,-0.2095,-0.2092,-0.2073,-0.207,-0.2063,-0.2053,-0.205,-0.2039,-0.204,-0.2042,-0.2022,-0.2053,-0.2053,-0.2053,-0.201,-0.2006,-0.2003,0,0,0,0,0,0,-0.205,-0.2074,-0.2076,-0.21,-0.2096,-0.2088,-0.2086,-0.2081,-0.2068,-0.2067,-0.2056,-0.2053,-0.2043,-0.2051,-0.2052,-0.2028,-0.2044,-0.2044,-0.2011,-0.2007,-0.2004,-0.1993,-0.2039,0,0,0,0,0,-0.2057,-0.2077,-0.2087,-0.2103,-0.2107,-0.21,-0.2099,-0.2089,-0.2083,-0.2076,-0.2066,-0.2059,-0.2046,-0.2042,-0.2037,-0.2036,-0.2039,-0.2024,-0.2021,-0.2018,-0.2012,-0.1999,-0.1993,-0.2052,-0.2052,-0.2052,0,0,-0.2057,-0.2074,-0.2083,-0.2102,-0.2101,-0.2094,-0.2095,-0.2097,-0.2076,-0.2081,-0.2055,-0.2053,-0.2046,-0.2026,-0.2023,-0.2029,-0.2006,-0.2018,-0.2016,-0.2011,-0.1998,-0.1992,-0.1987,-0.2052,-0.2052,-0.2052,0,0,-0.206,-0.2085,-0.2096,-0.2096,-0.2103,-0.2096,-0.21,-0.2096,-0.2078,-0.2066,-0.2054,-0.2041,-0.2034,-0.2009,-0.1999,-0.1987,-0.1992,-0.1991,-0.1963,-0.1949,-0.1944,-0.1939,-0.1942,-0.1938,-0.1987,-0.1987,-0.1987,0,-0.2054,-0.2071,-0.2095,-0.2097,-0.2089,-0.2098,-0.2086,-0.2075,-0.2064,-0.2048,-0.2052,-0.2021,-0.2017,-0.1979,-0.1964,-0.1976,-0.198,-0.1971,-0.1943,-0.1939,-0.1934,-0.1939,-0.1935,-0.1985,-0.1985,-0.1985,-0.1986,0,-0.2055,-0.2064,-0.2071,-0.2074,-0.2068,-0.2064,-0.2055,-0.2042,-0.2031,-0.2016,-0.1987,-0.1978,-0.1956,-0.1951,-0.195,-0.1916,-0.1933,-0.194,-0.1947,-0.1925,-0.1932,-0.1929,-0.1982,-0.1982,-0.1983,-0.1984,0,0,-0.2025,-0.2065,-0.206,-0.205,-0.2052,-0.204,-0.2019,-0.1991,-0.1968,-0.1957,-0.1922,-0.1895,-0.1899,-0.189,-0.1889,-0.1875,-0.1849,-0.1894,-0.1894,-0.1888,-0.1832,-0.187,-0.1871,-0.1851,-0.185,-0.1849,-0.1851,0,-0.2002,-0.2014,-0.203,-0.1999,-0.1991,-0.199,-0.1962,-0.194,-0.1926,-0.19,-0.1889,-0.1862,-0.1873,-0.1861,-0.1848,-0.1852,-0.1837,-0.1849,-0.1862,-0.1863,-0.1891,-0.1867,-0.1923,-0.1931,-0.1847,-0.1847,-0.1846,0,-0.1967,-0.1978,-0.1971,-0.1953,-0.1948,-0.1925,-0.1878,-0.1858,-0.1838,-0.183,-0.1815,-0.1819,-0.1795,-0.1812,-0.1797,-0.1807,-0.1812,-0.1817,-0.1818,-0.1865,-0.1894,-0.1939,-0.1928,-0.195,-0.1841,-0.1842,-0.1842,0,-0.1909,-0.1915,-0.1908,-0.1903,-0.1898,-0.1871,-0.1853,-0.1829,-0.1806,-0.1788,-0.178,-0.1766,-0.1756,-0.1758,-0.1778,-0.1783,-0.1775,-0.1784,-0.1822,-0.1826,-0.1883,-0.1893,-0.1885,-0.1765,-0.1765,-0.1765,-0.1765,0,-0.1861,-0.1842,-0.1878,-0.1865,-0.1816,-0.1826,-0.1773,-0.1759,-0.1749,-0.1727,-0.174,-0.1728,-0.174,-0.1747,-0.1765,-0.179,-0.1764,-0.1812,-0.1823,-0.1871,-0.188,-0.1909,-0.188,-0.1765,-0.1765,-0.1765,-0.1765,0,-0.179,-0.1829,-0.1799,-0.1798,-0.179,-0.1746,-0.1724,-0.1696,-0.1698,-0.1676,-0.1671,-0.1687,-0.1708,-0.1734,-0.1745,-0.1773,-0.1783,-0.1806,-0.1872,-0.1891,-0.1954,-0.1919,-0.1795,-0.1785,-0.1847,-0.1848,-0.1849,0,-0.1777,-0.1757,-0.1741,-0.1718,-0.1711,-0.1671,-0.1649,-0.1655,-0.1646,-0.1654,-0.1646,-0.1665,-0.1691,-0.1738,-0.1821,-0.1875,-0.1803,-0.1912,-0.1925,-0.1958,-0.1927,-0.1816,-0.1808,-0.1986,-0.1988,-0.1989,-0.199,0,-0.1707,-0.1693,-0.1663,-0.1625,-0.1595,-0.1578,-0.1561,-0.1559,-0.1581,-0.1598,-0.1624,-0.1649,-0.1738,-0.1854,-0.1931,-0.1945,-0.189,-0.1943,-0.1954,-0.201,-0.1909,-0.1907,-0.1992,-0.2003,-0.2002,-0.2001,-0.2,-0.2,-0.1635,-0.1577,-0.1539,-0.149,-0.1483,-0.1487,-0.1479,-0.1513,-0.1532,-0.161,-0.1631,-0.1749,-0.1898,-0.205,-0.205,-0.2125,-0.2002,-0.2111,-0.206,-0.1939,-0.1937,-0.2057,-0.2096,-0.2095,-0.2094,-0.2094,-0.2093,0,-0.1503,-0.1447,-0.1412,-0.1366,-0.1361,-0.139,-0.142,-0.1453,-0.1512,-0.1676,-0.1752,-0.2006,-0.2137,-0.223,-0.2348,-0.2285,-0.2191,-0.2202,-0.2078,-0.2062,-0.218,-0.2203,-0.2296,-0.2296,-0.2296,-0.2296,-0.2296,-0.2296,-0.1424,-0.1309,-0.1288,-0.1246,-0.1257,-0.1272,-0.1301,-0.1406,-0.1552,-0.182,-0.2048,-0.2206,-0.2434,-0.244,-0.2403,-0.2344,-0.2208,-0.2127,-0.2062,-0.2202,-0.219,-0.2179,-0.2197,-0.2286,-0.2286,-0.1961,-0.1959,-0.1957]},{"header":{"parameterUnit":"m.s-1","parameterCategory":2,"la1":30.2991,"la2":30.254,"lo1":-89.0895,"lo2":-89.0444,"dy":0.0017,"dx":0.0017,"nx":28,"ny":28,"refTime":"2025-01-21T09:00:00:Z","depth":"0","parameterNumber":3,"parameterNumberName":"V-component_of_CURRENTS"},"data":[0,0,0,0,0,0,0,0,0,0,0,0,0,0,0,0,0,0,0,0,0,0,0,0,0,0,0,0,0,0,0,0,0,0,0,0,0,0,0,0,0,0,0,0,0,0,0,0,0,0,0,0,0,0,0,0,0,0,-0.1714,-0.1713,0,-0.1583,-0.1582,-0.1581,-0.1512,-0.1512,-0.1512,-0.1512,-0.1475,-0.1474,-0.1474,0,0,0,0,0,0,0,0,0,0,0,0,0,-0.1757,-0.1758,-0.1715,-0.1713,-0.1711,-0.1584,-0.1582,-0.158,-0.1512,-0.1512,-0.1512,-0.1512,-0.1475,-0.1474,-0.1474,0,0,0,0,0,0,0,0,0,0,0,0,0,-0.1696,-0.1758,-0.1715,-0.1661,-0.1654,-0.1584,-0.1582,-0.158,-0.1513,-0.1512,-0.1512,-0.1511,-0.1476,-0.1475,-0.1473,-0.1474,0,0,-0.147,-0.147,0,0,0,0,0,0,0,0,-0.1699,-0.1694,-0.167,-0.1664,-0.1657,-0.1562,-0.1583,-0.1549,-0.1513,-0.1568,-0.1512,-0.1511,-0.1512,-0.1508,-0.1485,-0.1472,-0.1471,-0.147,-0.1469,-0.1469,-0.1468,0,0,0,0,0,0,0,-0.1704,-0.1699,-0.1664,-0.1668,-0.166,-0.1591,-0.1584,-0.1575,-0.1547,-0.1563,-0.1557,-0.154,-0.151,-0.1486,-0.1484,-0.147,-0.147,-0.1469,-0.1468,-0.1468,-0.1418,-0.1417,0,0,0,0,0,0,-0.1725,-0.1704,-0.1668,-0.166,-0.1676,-0.1592,-0.1583,-0.1594,-0.1545,-0.1535,-0.1541,-0.1538,-0.1488,-0.1486,-0.1483,-0.146,-0.1469,-0.1468,-0.1467,-0.1418,-0.1417,-0.1417,0,0,0,0,0,0,-0.1727,-0.1725,-0.1674,-0.1675,-0.1664,-0.1592,-0.1605,-0.1592,-0.1567,-0.1526,-0.1519,-0.1528,-0.1488,-0.1484,-0.1462,-0.146,-0.1467,-0.1466,-0.1419,-0.1418,-0.1417,-0.1429,0,0,0,0,0,0,-0.173,-0.1727,-0.1741,-0.1678,-0.1665,-0.1638,-0.1604,-0.159,-0.1556,-0.1551,-0.1514,-0.1509,-0.1488,-0.1464,-0.1461,-0.1458,-0.1465,-0.142,-0.1419,-0.1417,-0.143,-0.1429,-0.1428,0,0,0,0,0,-0.1732,-0.1759,-0.1744,-0.1738,-0.1689,-0.1637,-0.1625,-0.1571,-0.1556,-0.1547,-0.1512,-0.151,-0.1454,-0.1462,-0.1459,-0.1456,-0.142,-0.1419,-0.1417,-0.143,-0.1429,-0.1428,0,0,0,0,0,0,-0.178,-0.1752,-0.1734,-0.1751,-0.1698,-0.1625,-0.1616,-0.1576,-0.1539,-0.1541,-0.1504,-0.1497,-0.1474,-0.1464,-0.1474,-0.1436,-0.1437,-0.1435,-0.1447,-0.1446,-0.1446,-0.1471,-0.1464,0,0,0,0,0,-0.18,-0.1817,-0.1761,-0.177,-0.1754,-0.1686,-0.1659,-0.1621,-0.1577,-0.1559,-0.1527,-0.1497,-0.1465,-0.1456,-0.143,-0.1418,-0.1431,-0.1412,-0.1411,-0.1411,-0.1428,-0.143,-0.1432,-0.1412,-0.1412,-0.1412,0,0,-0.1819,-0.1805,-0.1813,-0.1781,-0.1744,-0.1713,-0.167,-0.1637,-0.1605,-0.1566,-0.153,-0.1497,-0.1459,-0.1432,-0.1422,-0.1425,-0.1423,-0.1409,-0.1409,-0.1426,-0.1429,-0.1432,-0.1434,-0.1411,-0.1411,-0.1411,0,0,-0.1853,-0.1858,-0.1873,-0.1837,-0.1785,-0.1741,-0.1735,-0.1666,-0.1636,-0.1592,-0.155,-0.1518,-0.1473,-0.1441,-0.1419,-0.1405,-0.1416,-0.1392,-0.1414,-0.1416,-0.1418,-0.1421,-0.1448,-0.1452,-0.1395,-0.1395,-0.1395,0,-0.1875,-0.1882,-0.1863,-0.1852,-0.1819,-0.1759,-0.1739,-0.1699,-0.1626,-0.1607,-0.1589,-0.1508,-0.1478,-0.1439,-0.1423,-0.1406,-0.1417,-0.1421,-0.1418,-0.142,-0.1422,-0.1449,-0.1454,-0.1396,-0.1396,-0.1396,-0.1396,0,-0.1901,-0.1898,-0.1903,-0.1875,-0.1842,-0.1817,-0.1756,-0.1727,-0.1685,-0.1638,-0.1593,-0.154,-0.1497,-0.1471,-0.144,-0.1429,-0.1436,-0.1415,-0.1426,-0.1425,-0.1453,-0.1458,-0.1396,-0.1396,-0.1396,-0.1396,0,0,-0.1959,-0.1931,-0.1927,-0.1904,-0.1849,-0.1817,-0.1789,-0.1734,-0.1716,-0.1655,-0.1631,-0.1559,-0.1537,-0.1511,-0.1468,-0.1461,-0.1478,-0.1447,-0.1447,-0.1487,-0.1505,-0.1553,-0.1563,-0.1455,-0.1456,-0.1457,-0.1522,0,-0.1972,-0.1966,-0.1942,-0.1905,-0.1885,-0.1832,-0.1804,-0.1754,-0.1714,-0.1683,-0.1632,-0.1594,-0.1549,-0.1528,-0.1514,-0.1479,-0.149,-0.1464,-0.149,-0.1491,-0.1544,-0.157,-0.1654,-0.1722,-0.1527,-0.1528,-0.1528,0,-0.1991,-0.1976,-0.1964,-0.1909,-0.1898,-0.187,-0.1821,-0.1786,-0.1744,-0.1721,-0.1688,-0.165,-0.1617,-0.1585,-0.156,-0.1545,-0.1538,-0.1519,-0.1521,-0.1569,-0.1549,-0.1688,-0.1739,-0.1851,-0.1536,-0.1536,-0.1535,0,-0.2021,-0.1982,-0.1975,-0.1954,-0.1896,-0.1879,-0.1843,-0.1801,-0.1778,-0.1752,-0.1745,-0.1704,-0.1684,-0.1661,-0.1618,-0.1593,-0.1612,-0.1571,-0.1618,-0.1621,-0.1702,-0.1712,-0.1878,-0.1586,-0.1585,-0.1585,-0.1585,0,-0.2036,-0.2017,-0.1987,-0.1974,-0.194,-0.1901,-0.1875,-0.1842,-0.1819,-0.1807,-0.1769,-0.1762,-0.1702,-0.1693,-0.1657,-0.1666,-0.1649,-0.1646,-0.1646,-0.1709,-0.1718,-0.1825,-0.1867,-0.1588,-0.1587,-0.1587,-0.1586,0,-0.2052,-0.2048,-0.2016,-0.1969,-0.1953,-0.1925,-0.1877,-0.1865,-0.1852,-0.1843,-0.1839,-0.1814,-0.1815,-0.1775,-0.175,-0.1729,-0.1815,-0.1732,-0.1824,-0.1834,-0.1975,-0.2013,-0.2147,-0.2282,-0.1802,-0.1804,-0.1805,0,-0.2052,-0.2048,-0.201,-0.1991,-0.1964,-0.1927,-0.1905,-0.1877,-0.1875,-0.1873,-0.1878,-0.1885,-0.1899,-0.1901,-0.1886,-0.1885,-0.1922,-0.1941,-0.1903,-0.2028,-0.2069,-0.2059,-0.2163,-0.2018,-0.2021,-0.2024,-0.2026,0,-0.201,-0.2016,-0.1987,-0.1974,-0.1949,-0.1932,-0.1909,-0.1921,-0.1909,-0.1932,-0.1969,-0.199,-0.2012,-0.2083,-0.2085,-0.2044,-0.2088,-0.1992,-0.2096,-0.225,-0.2276,-0.239,-0.1941,-0.2048,-0.2045,-0.2044,-0.2043,-0.2042,-0.1948,-0.1925,-0.1915,-0.191,-0.1915,-0.1945,-0.1959,-0.1983,-0.2019,-0.2119,-0.2087,-0.2228,-0.2293,-0.2324,-0.2284,-0.2344,-0.2283,-0.2339,-0.2375,-0.2352,-0.2494,-0.211,-0.2222,-0.2221,-0.222,-0.2219,-0.2218,0,-0.1797,-0.1824,-0.184,-0.1855,-0.192,-0.1922,-0.1966,-0.2036,-0.2134,-0.2291,-0.2375,-0.2607,-0.272,-0.2751,-0.2806,-0.2768,-0.2741,-0.2734,-0.2759,-0.2849,-0.2497,-0.2521,-0.2734,-0.2734,-0.2733,-0.2733,-0.2733,-0.2733,-0.17,-0.1677,-0.1732,-0.1842,-0.1905,-0.2001,-0.205,-0.2185,-0.2343,-0.2674,-0.2907,-0.3035,-0.3163,-0.3201,-0.324,-0.3155,-0.3245,-0.3125,-0.3212,-0.2971,-0.2937,-0.2904,-0.2938,-0.3235,-0.3236,-0.359,-0.3593,-0.3595]}],[{"header":{"parameterUnit":"m.s-1","parameterCategory":2,"la1":30.2991,"la2":30.254,"lo1":-89.0895,"lo2":-89.0444,"dy":0.0017,"dx":0.0017,"nx":28,"ny":28,"refTime":"2025-01-21T09:00:00:Z","depth":"2","parameterNumber":2,"parameterNumberName":"U-component_of_CURRENTS"},"data":[0,0,0,0,0,0,0,0,0,0,0,0,0,0,0,0,0,0,0,0,0,0,0,0,0,0,0,0,0,0,0,0,0,0,0,0,0,0,0,0,0,0,0,0,0,0,0,0,0,0,0,0,0,0,0,0,0,0,-0.2101,-0.2101,0,-0.208,-0.2079,-0.2078,-0.2029,-0.2028,-0.2028,-0.2027,-0.2024,-0.2025,-0.2025,0,0,0,0,0,0,0,0,0,0,0,0,0,-0.2036,-0.2037,-0.2101,-0.2101,-0.2101,-0.208,-0.2079,-0.2078,-0.2029,-0.2028,-0.2027,-0.2027,-0.2024,-0.2025,-0.2025,0,0,0,0,0,0,0,0,0,0,0,0,0,-0.204,-0.2038,-0.2101,-0.2077,-0.2075,-0.208,-0.2079,-0.2078,-0.2029,-0.2028,-0.2027,-0.2026,-0.2024,-0.2025,-0.2026,-0.2049,0,0,-0.2028,-0.2028,0,0,0,0,0,0,0,0,-0.204,-0.2042,-0.208,-0.2079,-0.2077,-0.206,-0.2055,-0.2071,-0.2029,-0.2042,-0.2027,-0.2026,-0.2042,-0.2041,-0.2032,-0.2049,-0.2049,-0.2028,-0.2028,-0.2029,-0.2029,0,0,0,0,0,0,0,-0.204,-0.2043,-0.2088,-0.2081,-0.2078,-0.2046,-0.2046,-0.2057,-0.2044,-0.2041,-0.2038,-0.2043,-0.204,-0.2032,-0.2032,-0.2049,-0.2028,-0.2029,-0.2029,-0.2029,-0.2046,-0.2046,0,0,0,0,0,0,-0.2056,-0.2043,-0.2089,-0.2088,-0.206,-0.2049,-0.2048,-0.2062,-0.2044,-0.2041,-0.2044,-0.2041,-0.2031,-0.2031,-0.2032,-0.2011,-0.2029,-0.203,-0.203,-0.2046,-0.2046,-0.2046,0,0,0,0,0,0,-0.2055,-0.2061,-0.209,-0.2067,-0.2069,-0.2052,-0.2068,-0.2063,-0.2055,-0.2047,-0.2043,-0.2042,-0.203,-0.2031,-0.2033,-0.2012,-0.203,-0.2031,-0.2046,-0.2046,-0.2046,-0.2,0,0,0,0,0,0,-0.2053,-0.2061,-0.207,-0.2069,-0.2071,-0.2087,-0.2069,-0.2063,-0.2061,-0.2057,-0.2044,-0.2042,-0.2029,-0.2032,-0.2033,-0.2014,-0.2031,-0.2046,-0.2046,-0.2046,-0.2001,-0.1998,-0.1996,0,0,0,0,0,-0.2051,-0.2069,-0.2071,-0.2076,-0.2088,-0.2088,-0.2085,-0.2066,-0.2062,-0.2055,-0.2046,-0.2043,-0.2032,-0.2032,-0.2035,-0.2014,-0.2046,-0.2046,-0.2046,-0.2003,-0.1999,-0.1996,0,0,0,0,0,0,-0.2042,-0.2067,-0.2068,-0.2092,-0.2089,-0.2081,-0.2079,-0.2073,-0.2061,-0.2059,-0.2048,-0.2046,-0.2036,-0.2044,-0.2045,-0.2021,-0.2037,-0.2037,-0.2004,-0.2,-0.1997,-0.1986,-0.2032,0,0,0,0,0,-0.205,-0.2069,-0.208,-0.2095,-0.21,-0.2093,-0.2091,-0.2081,-0.2076,-0.2068,-0.2059,-0.2052,-0.2039,-0.2035,-0.203,-0.2028,-0.2032,-0.2017,-0.2014,-0.2011,-0.2005,-0.1992,-0.1986,-0.2045,-0.2045,-0.2045,0,0,-0.205,-0.2067,-0.2076,-0.2094,-0.2093,-0.2086,-0.2088,-0.2089,-0.2069,-0.2074,-0.2048,-0.2046,-0.2038,-0.2019,-0.2016,-0.2022,-0.1999,-0.2011,-0.2009,-0.2004,-0.1991,-0.1985,-0.198,-0.2045,-0.2045,-0.2045,0,0,-0.2052,-0.2077,-0.2088,-0.2088,-0.2096,-0.2088,-0.2093,-0.2088,-0.2071,-0.2058,-0.2046,-0.2034,-0.2027,-0.2002,-0.1992,-0.198,-0.1985,-0.1984,-0.1956,-0.1942,-0.1937,-0.1932,-0.1935,-0.1931,-0.198,-0.198,-0.198,0,-0.2047,-0.2064,-0.2087,-0.209,-0.2081,-0.2091,-0.2079,-0.2067,-0.2057,-0.2041,-0.2045,-0.2014,-0.201,-0.1972,-0.1957,-0.1969,-0.1973,-0.1964,-0.1936,-0.1931,-0.1927,-0.1932,-0.1928,-0.1978,-0.1978,-0.1978,-0.1978,0,-0.2048,-0.2057,-0.2063,-0.2066,-0.206,-0.2056,-0.2047,-0.2035,-0.2024,-0.2009,-0.1979,-0.1971,-0.1949,-0.1944,-0.1943,-0.1909,-0.1926,-0.1933,-0.194,-0.1918,-0.1925,-0.1922,-0.1975,-0.1975,-0.1976,-0.1977,0,0,-0.2018,-0.2058,-0.2053,-0.2042,-0.2045,-0.2032,-0.2011,-0.1984,-0.196,-0.1949,-0.1915,-0.1888,-0.1892,-0.1882,-0.1882,-0.1868,-0.1842,-0.1886,-0.1887,-0.188,-0.1825,-0.1864,-0.1864,-0.1844,-0.1843,-0.1842,-0.1844,0,-0.1995,-0.2007,-0.2023,-0.1992,-0.1984,-0.1982,-0.1954,-0.1932,-0.1918,-0.1893,-0.1881,-0.1855,-0.1866,-0.1854,-0.1841,-0.1845,-0.183,-0.1842,-0.1855,-0.1856,-0.1884,-0.186,-0.1615,-0.1598,-0.184,-0.184,-0.1839,0,-0.1961,-0.1972,-0.1964,-0.1946,-0.194,-0.1918,-0.1871,-0.1851,-0.1831,-0.1823,-0.1808,-0.1811,-0.1788,-0.1805,-0.179,-0.1799,-0.1805,-0.181,-0.1811,-0.1858,-0.1887,-0.1658,-0.1583,-0.1834,-0.1834,-0.1835,-0.1835,0,-0.1902,-0.1908,-0.1901,-0.1896,-0.1891,-0.1864,-0.1846,-0.1822,-0.1799,-0.1781,-0.1772,-0.1759,-0.1749,-0.1751,-0.1771,-0.1776,-0.1768,-0.1778,-0.1816,-0.182,-0.1619,-0.1608,-0.1758,-0.1758,-0.1758,-0.1758,-0.1758,0,-0.1855,-0.1836,-0.1872,-0.1858,-0.181,-0.1819,-0.1767,-0.1752,-0.1742,-0.1721,-0.1733,-0.1721,-0.1733,-0.174,-0.1758,-0.1784,-0.1757,-0.1805,-0.1816,-0.1601,-0.1589,-0.1802,-0.1807,-0.1758,-0.1758,-0.1758,-0.1758,0,-0.1784,-0.1823,-0.1793,-0.1791,-0.1784,-0.174,-0.1717,-0.169,-0.1692,-0.167,-0.1664,-0.168,-0.1701,-0.1727,-0.1739,-0.1766,-0.1787,-0.1799,-0.1565,-0.155,-0.1851,-0.1854,-0.1839,-0.184,-0.1841,-0.1842,-0.1843,0,-0.1771,-0.1751,-0.1735,-0.1711,-0.1705,-0.1665,-0.1642,-0.1648,-0.1639,-0.1648,-0.164,-0.1659,-0.1653,-0.1702,-0.1656,-0.1671,-0.1811,-0.1592,-0.1564,-0.1843,-0.1856,-0.1857,-0.1858,-0.127,-0.1266,-0.1262,-0.126,0,-0.1701,-0.1687,-0.1657,-0.1619,-0.1589,-0.1572,-0.1554,-0.1552,-0.1575,-0.1548,-0.1575,-0.1571,-0.1552,-0.1453,-0.1483,-0.1481,-0.1573,-0.1536,-0.1831,-0.1326,-0.1317,-0.1328,-0.1344,-0.1231,-0.1233,-0.1236,-0.1237,-0.1238,-0.1629,-0.1571,-0.1533,-0.1484,-0.1477,-0.1481,-0.1473,-0.135,-0.1308,-0.1206,-0.1403,-0.1314,-0.1332,-0.121,-0.1218,-0.1249,-0.1355,-0.1393,-0.1397,-0.1405,-0.1378,-0.1375,-0.1294,-0.1297,-0.13,-0.1302,-0.1304,0,-0.1454,-0.1441,-0.1406,-0.136,-0.1286,-0.1384,-0.1413,-0.1262,-0.1068,-0.1028,-0.0955,-0.0923,-0.085,-0.0965,-0.0874,-0.0935,-0.0843,-0.1038,-0.0884,-0.0911,-0.0936,-0.088,-0.0666,-0.0666,-0.0665,-0.0665,0,0,-0.1364,-0.1226,-0.1205,-0.1115,-0.1167,-0.1048,-0.1074,-0.085,-0.0742,-0.0526,-0.0527,-0.0584,-0.0811,-0.0661,-0.0672,-0.0673,-0.0786,-0.0654,-0.1137,-0.0969,-0.0993,-0.1093,-0.1034,0,0,0,0,0]},{"header":{"parameterUnit":"m.s-1","parameterCategory":2,"la1":30.2991,"la2":30.254,"lo1":-89.0895,"lo2":-89.0444,"dy":0.0017,"dx":0.0017,"nx":28,"ny":28,"refTime":"2025-01-21T09:00:00:Z","depth":"2","parameterNumber":3,"parameterNumberName":"V-component_of_CURRENTS"},"data":[0,0,0,0,0,0,0,0,0,0,0,0,0,0,0,0,0,0,0,0,0,0,0,0,0,0,0,0,0,0,0,0,0,0,0,0,0,0,0,0,0,0,0,0,0,0,0,0,0,0,0,0,0,0,0,0,0,0,-0.1686,-0.1685,0,-0.1556,-0.1554,-0.1553,-0.1485,-0.1485,-0.1485,-0.1484,-0.1448,-0.1447,-0.1447,0,0,0,0,0,0,0,0,0,0,0,0,0,-0.1728,-0.1729,-0.1687,-0.1685,-0.1683,-0.1556,-0.1554,-0.1553,-0.1485,-0.1485,-0.1485,-0.1484,-0.1448,-0.1447,-0.1447,0,0,0,0,0,0,0,0,0,0,0,0,0,-0.1667,-0.1729,-0.1687,-0.1633,-0.1627,-0.1556,-0.1554,-0.1552,-0.1485,-0.1485,-0.1485,-0.1484,-0.1449,-0.1448,-0.1446,-0.1446,0,0,-0.1443,-0.1442,0,0,0,0,0,0,0,0,-0.1671,-0.1666,-0.1643,-0.1636,-0.1629,-0.1535,-0.1555,-0.1521,-0.1485,-0.1541,-0.1484,-0.1484,-0.1485,-0.1481,-0.1458,-0.1445,-0.1443,-0.1443,-0.1442,-0.1442,-0.1441,0,0,0,0,0,0,0,-0.1676,-0.167,-0.1636,-0.1641,-0.1633,-0.1564,-0.1556,-0.1547,-0.152,-0.1536,-0.153,-0.1513,-0.1482,-0.1459,-0.1457,-0.1443,-0.1443,-0.1442,-0.1441,-0.1441,-0.139,-0.139,0,0,0,0,0,0,-0.1697,-0.1676,-0.164,-0.1632,-0.1648,-0.1564,-0.1555,-0.1567,-0.1517,-0.1508,-0.1514,-0.151,-0.1461,-0.1458,-0.1456,-0.1433,-0.1442,-0.1441,-0.144,-0.1391,-0.139,-0.1389,0,0,0,0,0,0,-0.1699,-0.1696,-0.1646,-0.1647,-0.1636,-0.1564,-0.1577,-0.1564,-0.1539,-0.1499,-0.1492,-0.1501,-0.1461,-0.1457,-0.1435,-0.1432,-0.144,-0.1439,-0.1392,-0.1391,-0.139,-0.1402,0,0,0,0,0,0,-0.1701,-0.1699,-0.1713,-0.165,-0.1637,-0.161,-0.1577,-0.1562,-0.1528,-0.1523,-0.1486,-0.1482,-0.146,-0.1437,-0.1434,-0.1431,-0.1438,-0.1393,-0.1391,-0.139,-0.1403,-0.1402,-0.1401,0,0,0,0,0,-0.1704,-0.1731,-0.1716,-0.171,-0.1661,-0.161,-0.1597,-0.1544,-0.1529,-0.152,-0.1485,-0.1483,-0.1427,-0.1435,-0.1432,-0.1429,-0.1393,-0.1392,-0.139,-0.1403,-0.1402,-0.1401,0,0,0,0,0,0,-0.1752,-0.1724,-0.1707,-0.1723,-0.1671,-0.1598,-0.1588,-0.1549,-0.1512,-0.1514,-0.1476,-0.147,-0.1447,-0.1437,-0.1447,-0.1409,-0.141,-0.1407,-0.142,-0.1419,-0.1418,-0.1444,-0.1437,0,0,0,0,0,-0.1772,-0.1789,-0.1733,-0.1742,-0.1727,-0.1658,-0.1631,-0.1593,-0.1549,-0.1532,-0.15,-0.147,-0.1438,-0.1429,-0.1403,-0.1391,-0.1403,-0.1385,-0.1384,-0.1384,-0.14,-0.1403,-0.1405,-0.1384,-0.1384,-0.1385,0,0,-0.1791,-0.1777,-0.1785,-0.1753,-0.1716,-0.1685,-0.1643,-0.161,-0.1578,-0.1538,-0.1503,-0.1469,-0.1432,-0.1405,-0.1395,-0.1398,-0.1396,-0.1382,-0.1382,-0.1399,-0.1402,-0.1404,-0.1406,-0.1383,-0.1384,-0.1384,0,0,-0.1825,-0.183,-0.1846,-0.1809,-0.1758,-0.1714,-0.1707,-0.1639,-0.1608,-0.1565,-0.1523,-0.1491,-0.1446,-0.1413,-0.1392,-0.1377,-0.1389,-0.1365,-0.1387,-0.1389,-0.1391,-0.1393,-0.142,-0.1425,-0.1368,-0.1368,-0.1368,0,-0.1847,-0.1854,-0.1835,-0.1824,-0.1792,-0.1731,-0.1711,-0.1672,-0.1598,-0.158,-0.1562,-0.1481,-0.1451,-0.1411,-0.1395,-0.1378,-0.139,-0.1394,-0.139,-0.1393,-0.1395,-0.1422,-0.1427,-0.1368,-0.1368,-0.1368,-0.1368,0,-0.1874,-0.1871,-0.1875,-0.1847,-0.1814,-0.1789,-0.1728,-0.1699,-0.1657,-0.1611,-0.1566,-0.1512,-0.1469,-0.1444,-0.1413,-0.1402,-0.1409,-0.1388,-0.1399,-0.1398,-0.1426,-0.1431,-0.1369,-0.1369,-0.1369,-0.1369,0,0,-0.1932,-0.1904,-0.19,-0.1877,-0.1822,-0.179,-0.1761,-0.1706,-0.1689,-0.1628,-0.1603,-0.1531,-0.1509,-0.1484,-0.144,-0.1434,-0.145,-0.142,-0.142,-0.146,-0.1478,-0.1527,-0.1537,-0.1428,-0.1429,-0.1429,-0.1495,0,-0.1946,-0.1939,-0.1915,-0.1878,-0.1858,-0.1804,-0.1777,-0.1726,-0.1686,-0.1656,-0.1604,-0.1566,-0.1521,-0.15,-0.1487,-0.1451,-0.1463,-0.1436,-0.1462,-0.1464,-0.1517,-0.1544,-0.1103,-0.1128,-0.15,-0.1501,-0.1501,0,-0.1966,-0.195,-0.1938,-0.1882,-0.1871,-0.1843,-0.1793,-0.1759,-0.1717,-0.1693,-0.1661,-0.1622,-0.159,-0.1557,-0.1532,-0.1517,-0.151,-0.1492,-0.1493,-0.1543,-0.1522,-0.1186,-0.1124,-0.151,-0.1509,-0.1508,-0.1508,0,-0.1996,-0.1957,-0.1949,-0.1928,-0.1869,-0.1853,-0.1817,-0.1774,-0.1751,-0.1724,-0.1718,-0.1676,-0.1657,-0.1633,-0.1591,-0.1566,-0.1584,-0.1544,-0.1591,-0.1595,-0.123,-0.1202,-0.1558,-0.1558,-0.1558,-0.1558,-0.1558,0,-0.2011,-0.1992,-0.1961,-0.1948,-0.1914,-0.1875,-0.1849,-0.1815,-0.1792,-0.178,-0.1742,-0.1735,-0.1675,-0.1666,-0.163,-0.164,-0.1622,-0.1619,-0.1619,-0.1225,-0.1197,-0.153,-0.1526,-0.156,-0.156,-0.1559,-0.1559,0,-0.2028,-0.2023,-0.1991,-0.1944,-0.1928,-0.19,-0.1852,-0.1839,-0.1826,-0.1817,-0.1813,-0.1788,-0.1789,-0.1749,-0.1723,-0.1702,-0.1695,-0.1706,-0.1275,-0.1227,-0.1697,-0.1693,-0.1773,-0.1776,-0.1778,-0.1779,-0.1781,0,-0.2028,-0.2023,-0.1986,-0.1966,-0.194,-0.1902,-0.188,-0.1852,-0.185,-0.1847,-0.1852,-0.186,-0.1806,-0.1809,-0.1576,-0.1504,-0.1778,-0.1371,-0.1262,-0.173,-0.1721,-0.1714,-0.1706,-0.076,-0.0753,-0.0747,-0.0742,0,-0.1986,-0.1992,-0.1962,-0.195,-0.1925,-0.1907,-0.1884,-0.1896,-0.1884,-0.1823,-0.1862,-0.1817,-0.1649,-0.1338,-0.1256,-0.1197,-0.134,-0.127,-0.1801,-0.083,-0.0795,-0.0782,-0.0802,-0.0691,-0.0696,-0.07,-0.0703,-0.0705,-0.1924,-0.1901,-0.1891,-0.1886,-0.1891,-0.1921,-0.1935,-0.1655,-0.1574,-0.132,-0.1606,-0.1344,-0.1243,-0.0783,-0.0782,-0.0803,-0.089,-0.0987,-0.0993,-0.1008,-0.0936,-0.0912,-0.0816,-0.0821,-0.0826,-0.0831,-0.0834,0,-0.1673,-0.18,-0.1817,-0.1831,-0.1737,-0.1898,-0.1942,-0.1655,-0.1263,-0.104,-0.0808,-0.0644,-0.031,-0.0456,-0.0166,-0.0207,-0.0059,-0.0502,-0.0236,-0.0277,-0.0317,-0.0205,0.0106,0.0105,0.0104,0.0103,0,0,-0.1549,-0.1471,-0.1524,-0.1524,-0.1687,-0.1505,-0.1546,-0.1087,-0.0777,-0.0275,-0.0133,0.0099,-0.0193,0.0074,0.0121,0.009,-0.0141,0.0073,-0.0604,-0.031,-0.0353,-0.0448,-0.0306,0,0,0,0,0]}],[{"header":{"parameterUnit":"m.s-1","parameterCategory":2,"la1":30.2991,"la2":30.254,"lo1":-89.0895,"lo2":-89.0444,"dy":0.0017,"dx":0.0017,"nx":28,"ny":28,"refTime":"2025-01-21T09:00:00:Z","depth":"4","parameterNumber":2,"parameterNumberName":"U-component_of_CURRENTS"},"data":[0,0,0,0,0,0,0,0,0,0,0,0,0,0,0,0,0,0,0,0,0,0,0,0,0,0,0,0,0,0,0,0,0,0,0,0,0,0,0,0,0,0,0,0,0,0,0,0,0,0,0,0,0,0,0,0,0,0,-0.0417,-0.0417,0,-0.0409,-0.0409,-0.0409,-0.0418,-0.0418,-0.0419,-0.0419,-0.037,-0.0368,-0.0366,0,0,0,0,0,0,0,0,0,0,0,0,0,-0.05,-0.0498,-0.0417,-0.0417,-0.0417,-0.0409,-0.0409,-0.0409,-0.0418,-0.0418,-0.0419,-0.0419,-0.037,-0.0368,-0.0366,0,0,0,0,0,0,0,0,0,0,0,0,0,-0.0475,-0.0497,-0.0417,-0.042,-0.0421,-0.0409,-0.0409,-0.0409,-0.0418,-0.0418,-0.0419,-0.0419,-0.0371,-0.0368,-0.0366,-0.034,0,0,-0.0358,-0.0357,0,0,0,0,0,0,0,0,-0.0476,-0.0471,-0.042,-0.042,-0.0421,-0.0415,-0.042,-0.0384,-0.0418,-0.0419,-0.0419,-0.042,-0.0381,-0.0378,-0.0375,-0.0338,-0.0336,-0.0358,-0.0357,-0.0356,-0.0355,0,0,0,0,0,0,0,-0.0478,-0.0472,-0.0414,-0.042,-0.042,-0.0443,-0.044,-0.0414,-0.0396,-0.0418,-0.0419,-0.0419,-0.0381,-0.0378,-0.0374,-0.0335,-0.0358,-0.0356,-0.0355,-0.0354,-0.034,-0.0341,0,0,0,0,0,0,-0.0475,-0.0473,-0.0414,-0.0413,-0.045,-0.0441,-0.0437,-0.0416,-0.0397,-0.0395,-0.0418,-0.0419,-0.0382,-0.0377,-0.0372,-0.037,-0.0356,-0.0353,-0.0352,-0.0339,-0.034,-0.0341,0,0,0,0,0,0,-0.0476,-0.0469,-0.0414,-0.0445,-0.044,-0.0439,-0.0416,-0.0416,-0.0421,-0.0397,-0.0395,-0.0424,-0.0382,-0.0376,-0.0365,-0.0367,-0.0352,-0.035,-0.0338,-0.0339,-0.0341,-0.0347,0,0,0,0,0,0,-0.0478,-0.0469,-0.0454,-0.0444,-0.0438,-0.0405,-0.0415,-0.0415,-0.0419,-0.0421,-0.0401,-0.0397,-0.0382,-0.0369,-0.0363,-0.0364,-0.0348,-0.0336,-0.0338,-0.034,-0.0345,-0.0349,-0.0351,0,0,0,0,0,-0.0481,-0.0452,-0.0453,-0.0447,-0.0416,-0.0405,-0.0403,-0.0406,-0.0419,-0.0414,-0.0415,-0.0398,-0.0378,-0.0367,-0.036,-0.036,-0.0335,-0.0338,-0.034,-0.0344,-0.0348,-0.0351,0,0,0,0,0,0,-0.0471,-0.045,-0.0451,-0.0414,-0.0412,-0.0406,-0.0396,-0.041,-0.0407,-0.0408,-0.0399,-0.0394,-0.039,-0.0379,-0.0367,-0.0368,-0.0359,-0.036,-0.0364,-0.0368,-0.0371,-0.0346,-0.0346,0,0,0,0,0,-0.0464,-0.0443,-0.0431,-0.0405,-0.0397,-0.0402,-0.04,-0.0405,-0.0402,-0.0402,-0.0397,-0.0395,-0.0393,-0.0384,-0.0376,-0.0363,-0.0359,-0.0366,-0.0369,-0.0371,-0.0349,-0.0369,-0.0371,-0.035,-0.035,-0.035,0,0,-0.0457,-0.0441,-0.043,-0.0404,-0.0397,-0.038,-0.0401,-0.0392,-0.0389,-0.0394,-0.0387,-0.0399,-0.0394,-0.0389,-0.0387,-0.0378,-0.0379,-0.0374,-0.0376,-0.0352,-0.0372,-0.0373,-0.0375,-0.0351,-0.0351,-0.0351,0,0,-0.0426,-0.041,-0.0381,-0.0375,-0.0364,-0.0367,-0.0368,-0.0368,-0.0376,-0.0375,-0.0391,-0.0408,-0.0391,-0.0399,-0.0398,-0.0412,-0.0397,-0.0417,-0.04,-0.0421,-0.0422,-0.0423,-0.043,-0.0431,-0.0414,-0.0415,-0.0415,0,-0.0415,-0.0374,-0.0374,-0.0345,-0.0337,-0.0361,-0.0335,-0.0344,-0.0351,-0.0356,-0.037,-0.039,-0.0394,-0.0397,-0.0409,-0.0415,-0.0418,-0.0383,-0.0422,-0.0423,-0.0424,-0.0431,-0.0432,-0.0415,-0.0415,-0.0415,-0.0415,0,-0.0366,-0.0335,-0.0315,-0.0287,-0.0283,-0.0264,-0.0276,-0.0284,-0.0307,-0.0322,-0.0342,-0.0367,-0.0374,-0.0397,-0.0399,-0.0415,-0.0413,-0.0426,-0.0407,-0.0426,-0.0433,-0.0434,-0.0416,-0.0416,-0.0416,-0.0415,0,0,-0.0332,-0.0287,-0.0279,-0.0261,-0.0251,-0.0241,-0.0237,-0.0239,-0.0242,-0.0275,-0.0281,-0.0314,-0.0342,-0.0345,-0.0374,-0.0398,-0.0422,-0.0409,-0.041,-0.0403,-0.0454,-0.0424,-0.0423,-0.0441,-0.0442,-0.0442,-0.0459,0,-0.0291,-0.022,-0.0219,-0.0177,-0.0146,-0.0169,-0.0165,-0.018,-0.0203,-0.0219,-0.0268,-0.0284,-0.0318,-0.0333,-0.0362,-0.0407,-0.0424,-0.0415,-0.0445,-0.0446,-0.0407,-0.0423,-0.0442,-0.046,-0.046,-0.046,-0.046,0,-0.0244,-0.0203,-0.0138,-0.0118,-0.0108,-0.0097,-0.01,-0.0103,-0.0134,-0.0154,-0.0185,-0.0222,-0.0262,-0.0296,-0.0362,-0.0353,-0.0391,-0.0431,-0.0433,-0.0396,-0.0418,-0.0436,-0.0462,-0.0462,-0.0462,-0.0462,-0.0462,0,-0.0213,-0.0156,-0.0101,-0.009,-0.0066,-0.0057,-0.0059,-0.008,-0.0087,-0.0114,-0.0129,-0.0175,-0.0209,-0.0262,-0.0342,-0.0348,-0.0416,-0.0438,-0.0445,-0.0443,-0.046,-0.0459,-0.0473,-0.0473,-0.0473,-0.0473,-0.0473,0,-0.0169,-0.0134,-0.0081,-0.0053,-0.0018,-0.002,-0.0003,-0.0018,-0.0038,-0.005,-0.0093,-0.0123,-0.0203,-0.0257,-0.032,-0.038,-0.0396,-0.0429,-0.0443,-0.0466,-0.0465,-0.0462,-0.046,-0.0473,-0.0473,-0.0473,-0.0473,0,-0.0148,-0.0106,-0.0051,-0.0007,0.0003,0.0024,0.0028,0.0035,0.001,-0.0008,-0.0016,-0.0082,-0.0156,-0.0233,-0.0327,-0.035,-0.0414,-0.0431,-0.0435,-0.0451,-0.0431,-0.043,-0.0428,-0.0427,-0.0427,-0.0426,-0.0425,0,-0.0132,-0.0089,-0.0018,0.0014,0.0035,0.0063,0.0077,0.0061,0.0063,0.0005,-0.0003,-0.0074,-0.0127,-0.0233,-0.0308,-0.0397,-0.0416,-0.0416,-0.043,-0.0411,-0.0425,-0.0426,-0.0426,-0.0424,-0.0424,-0.0424,-0.0424,0,-0.0109,-0.0073,-0.0025,0.0046,0.0081,0.0116,0.0131,0.0131,0.0101,0.0073,0.0001,-0.0063,-0.0144,-0.0232,-0.0292,-0.0364,-0.0396,-0.0408,-0.0411,-0.0424,-0.0406,-0.0421,-0.0422,-0.0421,-0.0421,-0.0421,-0.0422,0,-0.0101,-0.006,0.0014,0.0073,0.0119,0.0159,0.0163,0.0152,0.014,0.0066,0.0039,-0.0069,-0.0135,-0.0216,-0.0281,-0.0332,-0.0349,-0.0343,-0.0349,-0.0353,-0.0325,-0.0291,-0.0272,0,0,0,0,0,-0.0093,-0.0031,0.0031,0.0109,0.0155,0.0179,0.0196,0.0192,0.0153,0.0106,0.007,-0.0017,-0.0128,-0.0183,-0.0232,-0.0252,-0.0338,-0.0304,-0.0329,-0.0405,-0.0408,-0.0386,0,0,0,0,0,0,-0.008,-0.0013,0.0038,0.0125,0.0173,0.0222,0.0232,0.0209,0.0179,0.012,0.005,-0.0002,-0.0118,-0.0113,-0.0231,-0.0247,-0.0259,-0.0368,-0.0368,-0.0403,-0.0406,-0.0409,-0.0387,0,0,0,0,0]},{"header":{"parameterUnit":"m.s-1","parameterCategory":2,"la1":30.2991,"la2":30.254,"lo1":-89.0895,"lo2":-89.0444,"dy":0.0017,"dx":0.0017,"nx":28,"ny":28,"refTime":"2025-01-21T09:00:00:Z","depth":"4","parameterNumber":3,"parameterNumberName":"V-component_of_CURRENTS"},"data":[0,0,0,0,0,0,0,0,0,0,0,0,0,0,0,0,0,0,0,0,0,0,0,0,0,0,0,0,0,0,0,0,0,0,0,0,0,0,0,0,0,0,0,0,0,0,0,0,0,0,0,0,0,0,0,0,0,0,0.0788,0.0789,0,0.0861,0.0862,0.0863,0.0896,0.0896,0.0896,0.0896,0.0957,0.0958,0.096,0,0,0,0,0,0,0,0,0,0,0,0,0,0.0673,0.0674,0.0788,0.0789,0.079,0.0861,0.0862,0.0863,0.0896,0.0896,0.0896,0.0896,0.0956,0.0958,0.096,0,0,0,0,0,0,0,0,0,0,0,0,0,0.0731,0.0675,0.0788,0.0816,0.082,0.0861,0.0862,0.0863,0.0896,0.0896,0.0896,0.0896,0.0956,0.0958,0.096,0.0974,0,0,0.0968,0.0969,0,0,0,0,0,0,0,0,0.0727,0.0735,0.0811,0.0814,0.0818,0.0871,0.0844,0.09,0.0896,0.0866,0.0896,0.0896,0.0928,0.0932,0.0945,0.0977,0.098,0.0968,0.0969,0.097,0.0971,0,0,0,0,0,0,0,0.0723,0.0732,0.0816,0.0812,0.0816,0.0824,0.0832,0.0854,0.0895,0.0869,0.0872,0.0881,0.0929,0.0942,0.0946,0.098,0.0968,0.097,0.0971,0.0972,0.1019,0.1018,0,0,0,0,0,0,0.0717,0.0728,0.0814,0.0818,0.0773,0.0826,0.0835,0.0853,0.0895,0.0902,0.0881,0.0883,0.0938,0.0943,0.0948,0.0957,0.097,0.0973,0.0974,0.1019,0.1019,0.1018,0,0,0,0,0,0,0.0715,0.0724,0.0811,0.0775,0.0787,0.0828,0.0848,0.0854,0.0878,0.0905,0.0911,0.09,0.0938,0.0945,0.097,0.0959,0.0974,0.0976,0.1019,0.1019,0.1018,0.0979,0,0,0,0,0,0,0.0711,0.0723,0.0737,0.0775,0.0789,0.0841,0.0848,0.0856,0.0884,0.0887,0.0922,0.0927,0.0939,0.0966,0.0972,0.0963,0.0978,0.1019,0.1019,0.1019,0.0981,0.0978,0.0975,0,0,0,0,0,0.0707,0.0733,0.0737,0.0748,0.0806,0.0842,0.085,0.0878,0.0885,0.0898,0.0915,0.0927,0.0968,0.0968,0.0975,0.0966,0.1019,0.1019,0.1019,0.0982,0.0978,0.0975,0,0,0,0,0,0,0.071,0.074,0.0745,0.0784,0.081,0.0848,0.0873,0.0883,0.0909,0.0916,0.0932,0.0938,0.0953,0.0969,0.0969,0.0978,0.0993,0.0994,0.0963,0.0959,0.0956,0.0963,0.098,0,0,0,0,0,0.0711,0.0725,0.076,0.079,0.0808,0.0838,0.0858,0.0875,0.0902,0.0915,0.0932,0.0949,0.0956,0.0966,0.0981,0.0994,0.0997,0.0991,0.0988,0.0986,0.0995,0.0968,0.0963,0.1017,0.1017,0.1017,0,0,0.0722,0.0739,0.075,0.0788,0.0816,0.0843,0.0852,0.089,0.0902,0.0917,0.0943,0.0946,0.0958,0.0964,0.0972,0.0978,0.0974,0.0985,0.0982,0.0994,0.0966,0.0961,0.0956,0.1017,0.1017,0.1017,0,0,0.075,0.0768,0.0789,0.0808,0.0844,0.0858,0.0869,0.0906,0.0916,0.0937,0.0938,0.0936,0.0965,0.0956,0.0958,0.0952,0.0959,0.0956,0.0947,0.0919,0.0914,0.0909,0.0912,0.0908,0.0953,0.0953,0.0953,0,0.0764,0.0794,0.0803,0.0831,0.085,0.0864,0.0896,0.0905,0.0939,0.0941,0.0945,0.0951,0.0958,0.0945,0.0937,0.0944,0.0941,0.0955,0.0913,0.0909,0.0905,0.0909,0.0905,0.0951,0.0951,0.0951,0.0952,0,0.0801,0.083,0.085,0.0875,0.0893,0.0926,0.0937,0.0947,0.0953,0.0954,0.0949,0.0944,0.0946,0.0934,0.0936,0.0908,0.0919,0.091,0.0918,0.0897,0.0903,0.0899,0.0948,0.0949,0.095,0.095,0,0,0.0815,0.0867,0.0874,0.0893,0.092,0.0941,0.0952,0.0965,0.0967,0.0966,0.0961,0.0945,0.0934,0.0934,0.092,0.089,0.0855,0.0889,0.0888,0.0887,0.0813,0.0801,0.0797,0.0831,0.083,0.0829,0.0829,0,0.0843,0.0905,0.0914,0.0957,0.0988,0.099,0.0996,0.0999,0.0993,0.0986,0.0955,0.0948,0.0934,0.0926,0.0892,0.0865,0.0844,0.0857,0.084,0.084,0.0826,0.0791,0.0826,0.0827,0.0826,0.0825,0.0825,0,0.0865,0.0901,0.0966,0.0995,0.1009,0.1029,0.1034,0.104,0.102,0.1011,0.0985,0.0965,0.0925,0.0912,0.0856,0.0864,0.0844,0.0819,0.0818,0.0821,0.0821,0.0852,0.0819,0.082,0.082,0.0821,0.0821,0,0.0863,0.0924,0.0978,0.0993,0.1034,0.1051,0.1061,0.1052,0.1046,0.1023,0.1007,0.0968,0.0937,0.0899,0.0853,0.0853,0.0791,0.0786,0.0762,0.0762,0.0792,0.0797,0.075,0.075,0.075,0.075,0.075,0,0.0875,0.0913,0.0986,0.1016,0.105,0.1068,0.1085,0.1083,0.1068,0.1043,0.102,0.098,0.0927,0.0883,0.0855,0.0798,0.0795,0.076,0.0752,0.0778,0.0781,0.079,0.0795,0.075,0.075,0.075,0.075,0,0.0868,0.0922,0.0979,0.1042,0.1057,0.1081,0.11,0.1097,0.1088,0.1051,0.104,0.0983,0.0921,0.0881,0.0815,0.0793,0.0749,0.0735,0.0785,0.078,0.0746,0.0749,0.0711,0.071,0.071,0.0709,0.0709,0,0.0878,0.0914,0.0998,0.1025,0.1059,0.1092,0.1101,0.1104,0.1089,0.1038,0.1009,0.0951,0.0907,0.0801,0.078,0.074,0.0728,0.0725,0.0717,0.0741,0.0738,0.0741,0.0745,0.0708,0.0708,0.0708,0.0708,0,0.0883,0.0924,0.0972,0.103,0.106,0.108,0.1092,0.1069,0.1047,0.1045,0.094,0.0887,0.082,0.0764,0.0738,0.0709,0.0735,0.072,0.0721,0.0713,0.0738,0.0735,0.0739,0.0706,0.0706,0.0706,0.0706,0,0.0881,0.0911,0.0977,0.1016,0.1056,0.1053,0.1058,0.102,0.0997,0.0931,0.0896,0.0829,0.0796,0.0748,0.0723,0.0696,0.0689,0.0681,0.0683,0.0686,0.0677,0.0705,0.065,0,0,0,0,0,0.0867,0.0898,0.0948,0.0988,0.1029,0.1047,0.1043,0.1037,0.1005,0.0913,0.0897,0.0826,0.0753,0.0732,0.0696,0.0745,0.0718,0.0708,0.0717,0.0696,0.0698,0.0691,0,0,0,0,0,0,0.0858,0.0909,0.0939,0.0963,0.0979,0.1005,0.0998,0.0975,0.092,0.0882,0.0835,0.0821,0.0758,0.0761,0.0692,0.0691,0.0693,0.0686,0.0685,0.0694,0.0696,0.0698,0.0691,0,0,0,0,0]}]]